Погода в Бордигере

Италия     43°47′05″N   7°39′33″E
темп.,
°C
ветер,
м/с
пор.,
м/с
влажн.,
%
обл.,
%
осадки,
мм/ч
давл.,
гПа
погр.,
м
10 мая, пн
пн1023:00+18св81162100 0.0 1015110
02:00+17всв9136411 0.0 1015230
05:00+17всв10146987 0.0 1014336
08:00+17всв12157299 0.0 1013494
11:00+18всв121571100 0.1 1014433
14:00+18всв141769100 0.1 1013473
17:00+18всв131573100 0.0 1010326
20:00+16ссв7791100 8.3 1012203
11 мая, вт
вт1123:00+16всв4487100 2.8 101392
02:00+16ю2492100 5.1 1013203
05:00+15ююз5689100 4.7 1011518
08:00+15юз4585100 5.5 1011415
11:00+15ююз4385100 0.5 1011176
14:00+15ю3484100 4.7 1010248
17:00+15вюв4385100 2.1 1009322
20:00+15всв2287100 2.9 1008322
12 мая, ср
ср1223:00+15всв227999 0.1 1007173
02:00+15всв338357 0.1 1007248
05:00+15сз22805 0.0 1006214
08:00+15з44797 0.1 1007400
11:00+14зюз448531 0.3 1006273
14:00+15зюз33811 0.6 1005251
17:00+16всв76752 0.1 1004256
20:00+17всв557449 0.3 1003102
13 мая, чт
чт1323:00+16всв667683 0.1 1004267
02:00+15св327247 0.1 1004181
05:00+16з467330 0.0 1004455
08:00+15зюз45745 0.0 1004449
11:00+15юв32775 0.0 1004253
14:00+16ююв22716 0.0 1004405
17:00+16в337062 0.0 1004220
20:00+16в657311 0.0 1004302
14 мая, пт
пт1423:00+16св33750 0.0 1005168
02:00+15с11703 0.0 1006119
05:00+15всв0166100 0.0 1006129
08:00+15з2373100 0.0 1008452
11:00+15ю447643 0.5 1009497
14:00+16юз66666 0.7 1010748
17:00+16юз786695 0.0 1011858
20:00+16зюз67775 0.2 1011693